Home > Weather > Hanoi > Past weeks

Flag for Vietnam Past Weather in Hanoi, Vietnam — Yesterday and Last 2 Weeks

Now
90 °F

Partly sunny.


Feels Like: 108 °F
Forecast: 80 / 98 °F
Wind: 5 mph from Southeast

Location: Ha Noi Airport

Current Time: Jul 25, 2016 at 9:27:33 AM

Latest Report: Jul 25, 2016 at 9:00 AM


Visibility: N/A

Pressure: 29.80 "Hg

Humidity: 75%

Dew Point: 81 °F

Location of HanoiLocation

Past Weather in Hanoi — Graph

°F

Hanoi Temperature Yesterday

Maximum temperature yesterday: 95 °F (at 3:00 PM)
Minimum temperature yesterday: 77 °F (at 1:30 AM)
Average temperature yesterday: 86 °F

High & Low Weather Summary for the Past Weeks

 TemperatureHumidityPressure
High99 °F (Jul 10, 4:00 PM)94% (Jul 11, 4:30 AM)29.83 "Hg (Jul 11, 4:30 AM)
Low75 °F (Jul 23, 7:00 PM)42% (Jul 18, 2:30 PM)29.42 "Hg (Jul 10, 3:00 PM)
Average87 °F76%29.64 "Hg
* Reported Jul 10 8:00 AM — Jul 25 8:00 AM, Hanoi, Weather by CustomWeather, © 2016

Note: Actual official high and low records may vary slightly from our data, if they occured in-between our weather recording intervals... More about our weather records

Advertising

Hanoi Weather History for the Previous 24 Hours

Scroll right to see more
 ConditionsComfort  
Time TempWeatherWind HumidityBarometerVisibility
8:00 AM
Mon, Jul 25
88 °FPartly sunny.7 mph79%29.80 "HgN/A
7:30 AM86 °FBroken clouds.7 mph84%29.80 "Hg6 mi
7:00 AM84 °FScattered clouds.7 mph94%29.77 "Hg4 mi
6:30 AM84 °FScattered clouds.6 mph89%29.77 "Hg3 mi
6:00 AM82 °FPassing clouds.5 mph94%29.77 "Hg4 mi
5:30 AM82 °FClear.6 mph94%29.77 "Hg4 mi
5:00 AM82 °FClear.7 mph94%29.74 "Hg4 mi
4:30 AM82 °FClear.7 mph94%29.74 "Hg4 mi
4:00 AM82 °FClear.7 mph94%29.74 "Hg4 mi
3:30 AM82 °FClear.7 mph94%29.74 "Hg4 mi
3:00 AM84 °FClear.7 mph89%29.77 "Hg10 mi
2:30 AM84 °FClear.6 mph89%29.77 "Hg10 mi
2:00 AM84 °FPassing clouds.7 mph89%29.74 "HgN/A
1:30 AM84 °FPassing clouds.8 mph89%29.77 "HgN/A
1:00 AM86 °FClear.7 mph84%29.77 "Hg10 mi
12:30 AM86 °FClear.9 mph79%29.77 "Hg10 mi
12:00 AM86 °FClear.12 mph79%29.77 "Hg10 mi
11:30 PM
Sun, Jul 24
86 °FClear.9 mph79%29.77 "Hg10 mi
11:00 PM86 °FPassing clouds.9 mph84%29.77 "HgN/A
10:30 PM88 °FClear.10 mph75%29.77 "Hg10 mi
10:00 PM88 °FClear.12 mph75%29.77 "Hg10 mi
9:30 PM88 °FClear.13 mph75%29.74 "Hg10 mi
9:00 PM88 °FClear.14 mph79%29.74 "Hg10 mi
8:30 PM90 °FPassing clouds.10 mph71%29.71 "HgN/A
8:00 PM90 °FPassing clouds.3 mph67%29.71 "HgN/A
7:30 PM90 °FPassing clouds.6 mph67%29.71 "HgN/A
7:00 PM90 °FPassing clouds.5 mph63%29.68 "HgN/A
6:30 PM91 °FSunny.5 mph59%29.68 "Hg10 mi
6:00 PM93 °FPassing clouds.7 mph53%29.65 "HgN/A
5:30 PM93 °FPassing clouds.5 mph53%29.65 "HgN/A
5:00 PM93 °FPassing clouds.6 mph53%29.65 "HgN/A
4:30 PM93 °FPassing clouds.3 mph53%29.65 "HgN/A
4:00 PM95 °FPassing clouds.3 mph47%29.65 "HgN/A
3:30 PM93 °FPassing clouds.5 mph49%29.68 "HgN/A
3:00 PM95 °FPassing clouds.5 mph50%29.68 "HgN/A
2:30 PM93 °FPassing clouds.5 mph53%29.71 "HgN/A
2:00 PM93 °FScattered clouds.3 mph49%29.71 "HgN/A
1:30 PM93 °FScattered clouds.5 mph56%29.74 "HgN/A
1:00 PM93 °FScattered clouds.6 mph56%29.74 "HgN/A
12:30 PM91 °FScattered clouds.5 mph67%29.74 "HgN/A
12:00 PM90 °FPassing clouds.3 mph67%29.77 "HgN/A
11:30 AM90 °FPassing clouds.5 mph67%29.77 "HgN/A
11:00 AM88 °FPassing clouds.6 mph70%29.77 "HgN/A
10:30 AM88 °FPassing clouds.5 mph70%29.80 "HgN/A
10:00 AM86 °FPassing clouds.5 mph70%29.80 "Hg5 mi
9:30 AM84 °FScattered clouds.7 mph74%29.80 "Hg4 mi
9:00 AM84 °FScattered clouds.6 mph79%29.80 "Hg5 mi
Weather by CustomWeather, © 2016

See weather overviewHow to use our weather pages